Location: Skymont Scout Reservation
(35.4344°N, 85.8742°W)
Time: 22:20:58
(UTC-05:00)

ISS - All Passes

Search period start: 24 June 2016 00:00
Search period end: 04 July 2016 00:00
Orbit: 402 x 403 km, 51.6° (Epoch: 24 June)

Date Brightness Start Highest point End Pass type
(mag) Time Alt. Az. Time Alt. Az. Time Alt. Az.
24 Jun - 09:27:04 10° SSW 09:29:55 28° SE 09:32:48 10° ENE daylight
24 Jun - 11:03:38 10° W 11:06:21 24° NNW 11:09:05 10° NNE daylight
24 Jun - 15:57:45 10° N 15:59:32 14° NNE 16:01:18 10° ENE daylight
24 Jun - 17:33:04 10° NW 17:36:19 77° SW 17:39:35 10° SE daylight
25 Jun - 08:35:38 10° SSE 08:37:23 14° SE 08:39:08 10° E daylight
25 Jun - 10:10:23 10° WSW 10:13:31 44° NW 10:16:40 10° NE daylight
25 Jun - 16:40:24 10° NW 16:43:35 48° NE 16:46:45 10° ESE daylight
25 Jun - 18:18:09 10° W 18:19:42 13° SW 18:21:14 10° SSW daylight
26 Jun - 09:17:31 10° SW 09:20:45 84° SE 09:24:01 10° NE daylight
26 Jun - 10:55:56 10° WNW 10:57:35 13° NNW 10:59:14 10° N daylight
26 Jun - 15:47:57 10° NNW 15:50:45 25° NE 15:53:31 10° E daylight
26 Jun - 17:24:20 10° WNW 17:27:08 26° SW 17:29:56 10° S daylight
27 Jun - 08:25:04 10° SSW 08:28:05 36° SE 08:31:07 10° ENE daylight
27 Jun - 10:02:04 10° W 10:04:36 21° NNW 10:07:09 10° NNE daylight
27 Jun - 14:55:43 10° N 14:57:48 16° NNE 14:59:52 10° ENE daylight
27 Jun - 16:31:17 10° NW 16:34:30 60° SW 16:37:42 10° SE daylight
28 Jun - 07:33:17 10° S 07:35:29 17° SE 07:37:42 10° E daylight
28 Jun - 09:08:40 10° WSW 09:11:42 36° NW 09:14:45 10° NNE daylight
28 Jun - 14:04:13 10° NNE 14:04:44 10° NNE 14:05:17 10° NNE daylight
28 Jun - 15:38:31 10° NW 15:41:45 60° NE 15:44:58 10° ESE daylight
28 Jun - 17:17:28 10° WSW 17:17:47 10° SW 17:18:05 10° SW daylight
29 Jun - 08:15:38 10° SW 08:18:53 77° NW 08:22:09 10° NE daylight
29 Jun - 09:54:35 10° NW 09:55:48 12° NNW 09:57:02 10° N daylight
29 Jun - 14:45:58 10° NNW 14:48:54 30° NE 14:51:50 10° E daylight
29 Jun - 16:22:39 10° WNW 16:25:13 21° SW 16:27:46 10° S daylight
30 Jun - 07:23:01 10° SSW 07:26:09 46° SE 07:29:18 10° ENE daylight
30 Jun - 09:00:26 10° WNW 09:02:46 18° NNW 09:05:06 10° NNE daylight
30 Jun - 13:53:38 10° NNW 13:55:58 18° NNE 13:58:17 10° ENE daylight
30 Jun - 15:29:25 10° WNW 15:32:34 46° SW 15:35:42 10° SSE daylight
01 Jul - 06:30:58 10° S 06:33:30 21° SE 06:36:04 10° ENE daylight
01 Jul - 08:06:53 10° W 08:09:48 30° NW 08:12:45 10° NNE daylight
01 Jul - 13:01:42 10° N 13:02:54 12° NNE 13:04:07 10° NE daylight
01 Jul - 14:36:33 10° NW 14:39:50 76° NE 14:43:04 10° SE daylight
02 Jul - 07:13:43 10° WSW 07:16:57 60° NW 07:20:10 10° NE daylight
02 Jul - 08:53:23 10° NNW 08:53:57 10° NNW 08:54:30 10° NNW daylight
02 Jul - 13:43:55 10° NNW 13:46:58 36° NE 13:50:01 10° ESE daylight
02 Jul - 15:20:58 10° W 15:23:12 17° SW 15:25:25 10° S daylight
03 Jul - 06:20:57 10° SW 06:24:09 59° SE 06:27:22 10° NE daylight
03 Jul - 07:58:46 10° WNW 08:00:51 16° NNW 08:02:55 10° N daylight
03 Jul - 12:51:30 10° NNW 12:54:02 20° NNE 12:56:34 10° E daylight
03 Jul - 14:27:30 10° WNW 14:30:33 36° SW 14:33:34 10° SSE daylight
